Theta_e
330 328 329 329 329 328 327 327 329 329 327 326 325 326 323 321 316 311 308 310 310 313 318 316 317 321 322 323 324 324 324 327 330 328 327 327 328 331 333 335 337 340 342 342 342 342 343 343 344 346 348 349 350 350 348 348 350 353 352 354 355 354 354 352 352 351 351 351 350 350 352 353 356 357
330 332 330 329 328 330 326 328 328 328 327 324 324 323 323 325 319 316 312 312 314 313 316 318 317 320 322 323 323 324 324 329 329 327 326 326 326 330 332 334 336 337 338 339 339 340 341 341 342 342 342 344 346 349 350 349 350 350 351 353 354 353 352 351 351 352 351 351 351 350 351 352 353 354
330 328 328 326 327 327 327 327 326 328 326 323 322 322 322 325 323 319 317 311 315 316 314 317 320 321 322 323 323 323 324 327 328 326 325 325 329 332 331 332 333 335 336 337 337 337 336 337 339 339 339 341 343 345 347 348 348 349 349 351 352 351 350 349 350 351 352 351 351 349 349 350 351 352
332 330 328 328 327 327 325 326 326 327 326 323 321 320 319 320 321 319 316 313 312 316 317 318 320 321 321 322 321 322 323 325 330 324 324 325 331 327 327 332 333 334 334 335 335 334 334 335 337 338 339 340 342 343 344 344 345 346 348 348 350 351 350 347 347 349 350 351 350 349 350 350 350 351
329 329 328 327 327 325 324 325 326 324 321 322 321 321 317 316 317 317 315 314 314 316 319 320 320 322 322 321 322 321 321 322 322 326 324 325 324 325 327 329 333 334 334 334 334 334 334 335 335 336 338 339 341 342 343 342 342 344 344 344 345 346 347 345 344 347 348 348 349 349 350 349 348 349
327 327 325 325 325 325 325 325 324 324 321 320 319 319 319 317 317 318 316 314 314 313 318 319 321 321 322 319 322 320 320 320 323 322 323 324 325 326 327 329 331 335 335 333 333 333 333 334 334 335 336 337 338 339 340 339 339 340 340 340 341 341 340 340 342 344 345 347 348 348 348 348 348 348
325 323 325 326 326 327 324 324 324 324 322 321 319 319 319 318 318 318 318 315 313 314 316 320 320 320 320 319 320 321 321 322 322 321 322 323 325 327 328 329 331 334 334 333 333 333 333 334 334 334 335 335 335 335 335 335 336 337 337 337 339 339 338 338 340 342 343 345 346 348 347 346 347 347
325 325 323 324 325 325 324 324 323 322 322 321 320 320 319 319 318 318 318 317 316 316 316 320 320 320 319 320 321 321 322 320 321 321 322 324 324 325 327 328 330 333 333 332 332 333 333 333 332 332 332 332 331 331 330 331 333 332 332 333 334 335 335 335 336 339 339 340 342 344 345 346 345 342
326 325 324 325 324 323 323 323 322 323 321 321 321 320 320 319 319 320 319 318 317 317 317 319 322 321 320 320 320 320 318 319 320 321 321 322 323 324 327 329 331 333 333 333 332 332 332 332 332 332 331 331 330 329 329 329 329 330 330 331 331 332 333 333 332 334 335 335 337 337 339 341 343 342
325 325 324 325 324 324 323 323 323 322 322 321 320 319 320 319 319 319 318 319 318 318 319 320 320 320 318 318 318 319 319 318 318 319 321 322 324 324 325 326 329 331 333 334 336 335 335 333 332 332 332 331 330 329 328 327 326 326 326 325 325 328 329 330 332 332 331 332 334 335 336 337 338 339
324 324 324 325 324 324 324 323 323 323 321 321 320 321 320 320 318 318 318 318 318 318 320 321 321 319 319 317 315 318 319 319 319 318 318 319 321 322 323 323 326 328 329 332 334 335 336 336 336 331 330 330 330 330 328 327 325 324 323 322 322 323 324 325 328 330 329 330 330 330 330 332 336 338
325 325 325 325 325 325 325 324 323 322 321 320 319 320 320 320 319 318 319 318 318 320 321 321 319 318 316 316 317 318 318 316 317 319 318 317 318 320 322 323 323 325 327 327 330 333 335 335 334 331 331 331 331 330 330 330 329 326 324 322 324 324 323 323 325 326 326 325 325 326 327 327 331 334
325 325 325 325 325 327 330 325 322 322 320 321 320 320 319 320 319 318 318 318 319 321 321 320 320 318 315 315 314 314 314 314 315 318 319 318 319 320 320 322 324 326 325 326 328 331 334 336 338 339 338 338 336 333 332 333 334 330 324 323 325 325 324 322 323 324 324 324 324 323 324 326 328 331
325 324 323 326 331 329 327 325 322 319 317 316 320 323 321 320 319 318 318 318 320 321 320 319 318 315 314 314 314 314 315 317 318 318 318 316 318 319 319 320 322 326 326 325 325 329 334 335 336 338 339 341 340 339 336 335 335 333 328 326 325 325 325 323 322 322 322 322 322 322 321 323 326 327
326 324 322 321 326 329 329 330 328 323 319 320 318 316 317 318 321 319 318 319 321 322 320 320 318 316 314 314 315 315 316 318 318 317 318 318 318 316 315 313 319 325 325 325 325 325 331 335 334 336 338 341 341 340 339 336 334 330 329 327 326 325 325 325 324 323 321 321 321 321 320 321 323 324
325 324 323 323 324 325 326 326 326 326 325 321 319 318 316 315 315 317 321 321 321 321 320 319 318 316 314 314 315 316 317 317 318 318 318 317 317 316 315 315 315 321 325 322 321 321 326 329 331 334 337 339 341 343 338 334 334 330 329 328 328 327 326 325 326 326 324 323 323 324 323 323 324 324
324 323 323 323 324 324 329 330 327 324 325 321 319 317 316 315 315 316 316 316 320 321 321 320 319 318 316 315 316 319 319 320 318 318 317 316 316 316 315 316 317 320 324 322 320 320 323 327 328 331 335 338 340 342 337 335 334 331 329 328 329 328 326 326 326 326 325 324 323 323 323 322 322 322
324 323 322 322 323 323 324 324 323 322 320 320 320 321 321 322 323 318 316 315 315 317 320 321 318 319 318 317 318 321 321 319 318 317 316 316 316 316 315 317 318 320 323 320 320 318 321 324 326 327 333 338 339 340 337 333 331 331 329 328 327 327 326 325 325 324 325 324 323 322 320 320 320 320
324 323 323 322 322 322 323 324 324 323 321 319 319 319 319 320 320 320 321 321 321 321 320 319 319 319 319 319 320 321 322 321 320 319 318 317 317 318 319 319 320 320 323 323 321 315 320 323 323 325 329 335 337 339 334 332 331 330 328 328 328 326 325 325 325 324 323 323 322 321 319 318 317 317
323 322 322 322 322 322 322 321 318 320 321 318 319 318 319 318 317 317 316 317 319 321 321 320 320 320 321 318 321 322 322 321 320 319 320 319 317 316 315 314 316 317 321 324 322 319 319 323 322 323 328 333 335 338 339 333 329 328 327 328 328 326 324 323 324 323 323 323 322 321 318 316 315 314
322 322 322 321 322 322 321 320 318 316 314 319 318 317 315 314 313 315 318 317 315 315 313 312 313 313 313 314 313 313 313 316 317 317 315 314 315 313 312 313 314 315 318 322 324 321 319 322 322 323 326 330 334 337 338 340 333 328 327 326 326 325 323 322 322 322 323 323 322 322 320 316 314 314
320 321 330 330 324 322 321 318 314 315 317 316 313 310 310 312 314 316 319 320 320 316 315 314 315 315 315 315 315 315 314 313 314 317 313 314 315 313 313 311 313 315 317 319 324 320 320 322 323 322 325 329 332 335 337 339 339 332 326 325 325 323 323 322 321 322 322 322 322 321 319 316 314 318
318 316 322 326 324 317 316 312 311 312 312 313 310 309 310 313 314 317 318 318 318 317 317 317 318 319 318 321 321 322 317 316 317 319 318 318 316 313 313 313 313 312 314 319 324 320 320 321 323 323 323 322 329 335 337 338 339 340 337 335 331 324 323 322 320 318 319 320 320 320 317 315 314 321
314 313 312 317 317 313 311 309 306 307 306 310 309 309 312 314 315 316 316 317 316 315 316 316 317 318 319 319 320 319 319 320 322 320 319 318 317 315 314 314 314 312 313 319 325 321 321 322 321 325 324 322 324 331 336 337 339 340 339 337 335 328 325 323 319 316 316 317 317 318 316 313 315 323
314 313 312 312 316 312 310 306 303 302 303 306 309 310 313 316 317 311 311 314 315 316 317 317 316 317 318 317 318 318 318 319 319 320 318 319 318 316 315 314 314 314 316 320 323 323 320 322 321 324 326 327 328 328 330 335 338 339 340 339 337 336 331 329 326 327 316 313 313 313 313 313 312 322
312 312 311 312 314 312 308 304 301 299 301 304 310 312 308 309 309 310 315 315 315 314 314 315 315 315 315 315 315 316 317 317 319 318 317 318 318 319 318 317 315 313 315 321 320 321 321 321 323 323 326 327 328 330 327 328 333 337 338 339 339 338 333 331 330 330 327 323 321 315 317 312 313 316
313 311 312 315 316 310 305 301 300 301 302 302 306 306 306 306 307 308 314 315 312 312 313 314 313 313 313 313 313 314 315 316 317 317 317 318 318 320 321 321 321 319 320 321 324 323 322 322 328 325 326 329 329 330 329 329 332 335 335 337 339 338 335 334 331 331 330 326 325 315 312 312 312 315
311 312 311 313 309 303 299 299 301 301 302 309 303 302 304 305 306 313 312 309 310 312 311 312 312 312 313 313 312 313 314 315 315 316 317 318 318 319 319 321 322 322 322 322 322 322 324 324 327 330 329 329 329 328 328 331 331 333 333 336 337 337 335 336 334 333 332 329 327 319 318 316 316 315
315 311 307 303 302 302 302 302 303 303 303 303 303 303 303 306 310 310 307 308 308 307 308 309 310 311 311 311 312 313 313 315 316 316 316 317 318 319 320 320 321 321 324 325 323 323 325 327 327 331 332 332 330 330 330 328 330 332 335 333 332 332 333 334 336 334 332 329 328 322 320 320 318 319
311 308 306 305 306 307 309 311 312 316 314 308 308 309 311 311 307 307 306 306 306 305 306 308 308 308 309 309 310 313 314 313 312 314 314 314 315 316 316 316 317 319 322 326 325 325 326 329 330 330 332 333 333 331 330 328 327 331 334 334 334 333 333 332 333 334 332 327 327 323 324 325 321 321
309 310 310 310 306 305 310 315 315 315 315 312 308 308 308 305 305 307 305 305 304 306 305 306 307 307 308 310 310 309 310 310 312 314 315 313 313 315 315 315 315 316 318 324 328 327 329 331 332 331 330 331 330 331 331 331 328 328 332 335 334 330 330 332 332 332 330 329 327 326 325 325 324 324
307 308 309 312 318 317 314 311 309 308 309 309 307 305 305 304 306 308 308 307 303 303 304 306 307 307 307 306 307 308 308 309 311 313 313 312 312 314 314 312 312 315 315 318 326 330 333 332 332 333 333 332 330 330 331 330 330 328 330 334 335 335 332 331 332 332 332 330 326 324 324 325 324 324
307 308 311 311 309 310 310 308 306 306 304 306 305 305 304 301 300 301 301 300 300 302 304 304 304 305 305 305 306 307 307 308 309 311 311 311 311 312 313 311 312 313 313 314 319 323 329 332 336 335 335 334 333 331 328 326 327 327 329 331 334 334 332 333 333 333 331 329 327 326 324 326 327 325
305 308 307 308 307 307 306 305 305 304 304 304 302 302 305 302 300 301 301 299 299 302 304 303 303 302 304 303 304 305 306 306 308 309 309 310 311 310 310 310 311 314 314 314 316 319 320 327 330 331 330 326 323 325 328 329 327 327 329 330 332 333 334 334 335 335 332 330 329 326 325 326 329 329
306 307 307 306 306 305 305 305 303 303 303 303 301 301 301 298 300 301 299 298 300 302 302 302 302 302 302 302 303 303 305 305 306 308 309 310 309 309 309 309 310 312 313 313 315 318 319 321 328 327 324 324 323 320 319 318 325 327 326 327 330 333 333 335 335 335 333 333 332 328 327 328 328 331
306 306 305 304 303 303 303 303 303 302 301 301 299 299 300 298 299 298 297 297 298 300 300 300 301 300 301 301 302 303 304 305 305 306 307 307 307 308 309 310 311 311 313 313 314 317 318 318 319 324 323 321 321 319 319 315 316 319 328 328 329 331 333 334 335 335 334 332 333 331 327 327 329 331
305 304 304 302 303 302 301 301 300 300 301 300 300 299 300 297 296 296 296 297 298 300 300 299 298 300 300 301 301 302 303 303 303 304 305 306 306 307 307 309 311 311 312 313 315 316 317 317 317 316 321 322 320 320 318 319 313 310 310 324 329 331 332 333 333 332 333 334 332 332 331 330 330 332
303 302 303 303 303 304 304 304 303 301 301 300 298 298 298 297 296 296 296 295 297 298 298 297 298 299 299 300 299 299 301 302 303 303 304 305 304 305 306 307 308 309 311 313 314 315 317 317 316 315 314 317 321 320 314 314 313 312 307 308 325 330 333 331 331 331 332 334 333 333 333 331 332 333
303 304 304 303 303 302 302 302 301 299 297 297 297 296 296 296 295 295 296 296 296 296 296 296 297 298 298 298 299 299 299 300 300 301 302 303 304 304 305 307 307 309 310 312 313 314 316 316 316 315 314 312 315 321 316 311 310 314 310 304 313 327 330 331 331 332 332 331 332 333 331 327 325 325
305 305 304 302 300 298 297 298 296 296 296 296 295 294 294 295 294 294 294 296 295 296 295 296 297 296 296 297 297 298 299 299 300 300 301 302 304 305 305 307 307 308 308 311 311 312 313 315 317 317 316 316 316 317 316 316 316 316 314 310 303 312 319 325 331 331 330 332 332 330 327 327 328 327
302 300 299 300 298 298 296 294 294 295 294 294 294 296 293 292 292 293 294 294 295 293 294 294 294 294 295 295 296 297 297 298 299 300 301 301 303 304 306 307 306 307 307 309 311 311 312 315 321 318 322 319 320 319 316 312 311 312 312 313 307 305 307 312 318 320 321 325 330 330 327 325 326 325
300 298 296 296 296 295 293 292 293 293 293 293 292 291 291 292 292 294 294 295 292 294 292 293 293 294 294 295 296 297 297 297 297 298 300 300 300 301 304 305 304 306 306 307 309 312 314 317 321 321 320 319 317 313 310 311 310 312 314 316 316 310 308 308 309 312 315 316 322 325 324 324 324 324
300 297 296 298 296 295 293 293 292 293 293 294 292 291 290 289 288 289 289 289 290 292 291 291 292 293 293 294 295 296 296 297 297 297 298 299 299 299 300 302 304 305 307 308 311 314 316 316 318 318 319 317 316 316 312 313 313 313 313 314 315 316 316 313 311 311 311 311 311 312 315 320 321 320
297 296 294 294 293 292 292 292 292 292 292 292 292 291 291 289 288 288 287 287 288 289 290 291 291 292 293 294 296 295 296 297 297 297 297 299 299 299 300 301 304 305 306 307 309 312 315 316 317 317 316 315 316 314 313 314 313 314 314 314 315 315 315 317 318 315 314 313 311 311 311 311 310 310
297 295 294 293 292 291 291 292 291 290 289 290 289 290 290 288 289 288 287 288 288 288 290 289 290 291 292 294 295 294 296 298 297 297 298 298 298 299 299 300 301 303 305 307 308 309 312 314 315 316 315 316 316 316 317 316 314 314 314 314 313 314 314 315 314 314 314 314 311 311 311 312 313 311
Wind_Speed
3 3 4 5 5 5 3 3 3 3 3 3 3 4 5 3 3 2 2 3 3 4 1 3 4 2 4 8 8 8 7 10 13 9 9 9 10 13 18 19 19 19 18 18 18 19 19 20 20 21 22 23 24 24 26 26 25 23 22 22 22 22 21 20 19 20 20 20 20 20 20 20 18 19
4 4 3 3 4 4 3 4 3 4 5 4 4 5 5 4 5 4 3 5 3 5 3 2 4 5 9 8 9 7 9 12 14 9 9 9 10 16 19 20 20 20 19 18 18 18 19 19 20 20 20 21 23 23 23 24 23 23 22 22 21 21 21 20 19 20 20 20 20 20 20 20 20 19
3 3 4 3 4 4 4 4 4 4 5 5 5 5 4 5 6 5 4 3 4 3 4 4 6 8 10 9 8 8 8 10 12 9 9 10 14 20 16 19 20 19 19 18 18 18 19 19 19 19 20 21 22 23 23 23 23 23 23 22 22 21 21 20 20 20 20 20 20 20 20 20 20 19
4 4 4 5 5 4 3 4 4 5 5 5 5 5 5 5 5 5 4 6 9 4 5 7 9 9 10 10 11 9 8 8 13 9 10 11 16 11 10 15 18 18 18 19 18 18 19 19 19 19 20 21 21 22 22 22 22 22 23 22 22 22 21 21 20 21 21 20 20 20 20 20 19 19
3 4 4 5 5 3 4 5 5 5 6 5 5 5 5 5 5 6 6 6 8 6 4 6 7 8 8 10 9 11 9 9 9 9 10 10 10 10 9 10 15 18 18 18 18 18 18 19 19 19 20 20 21 22 22 22 22 22 22 22 22 22 21 21 21 21 21 21 21 20 20 19 19 18
3 3 4 5 5 3 4 4 5 5 6 5 5 5 6 6 6 6 5 6 4 8 4 6 7 8 6 9 9 9 12 11 10 11 10 9 9 9 9 9 10 16 17 17 18 17 18 18 19 19 20 20 21 21 21 21 21 21 22 22 22 22 21 21 21 21 21 21 21 21 20 19 19 18
4 3 4 6 5 3 4 5 5 4 5 5 6 7 6 6 7 5 6 4 5 7 8 5 7 8 8 7 11 9 9 10 9 11 10 10 9 9 10 10 9 15 17 18 18 17 17 18 18 19 20 20 20 20 20 20 20 20 20 21 21 22 21 21 21 21 21 20 21 21 20 20 19 18
4 5 4 6 5 4 5 5 5 4 4 5 6 7 6 6 8 6 5 6 6 4 7 8 6 7 8 9 9 9 8 10 10 8 10 9 9 10 9 10 10 12 17 18 18 18 18 18 18 19 19 19 19 19 20 19 20 19 20 20 21 21 22 21 21 21 21 20 20 20 20 20 19 18
4 4 5 6 4 4 5 6 5 5 5 6 6 7 7 7 7 6 5 6 5 6 9 9 8 7 7 8 9 9 8 9 9 9 9 9 9 10 9 8 9 14 17 18 18 18 18 18 19 19 19 19 19 19 19 19 19 20 20 21 21 21 22 22 22 21 21 20 20 20 20 20 19 18
4 5 5 5 5 4 5 7 6 5 6 5 5 6 7 7 6 6 6 5 5 6 7 8 9 8 8 8 8 9 7 9 10 11 9 8 8 8 9 9 8 7 8 8 9 11 12 15 19 19 18 18 19 19 19 19 19 19 20 21 21 21 22 22 22 21 20 20 19 19 19 19 19 18
5 5 5 5 5 6 6 7 6 6 5 5 6 6 7 6 6 7 7 6 6 6 7 7 7 8 9 7 9 10 8 9 9 10 10 10 9 7 7 10 9 8 9 11 16 15 14 15 12 14 18 19 19 19 19 19 20 19 20 20 21 21 21 21 21 20 20 19 19 19 19 19 19 19
6 6 6 6 6 6 7 6 6 5 6 5 5 6 4 5 5 7 6 6 6 7 7 7 8 7 9 9 8 7 7 8 8 5 6 11 12 12 9 8 10 10 9 10 10 10 12 12 15 17 17 18 19 20 19 20 19 20 20 20 20 21 20 20 20 20 20 19 19 20 19 19 18 19
6 5 6 6 6 7 9 11 10 8 7 5 6 6 4 5 6 6 6 6 6 7 8 9 6 7 8 9 8 9 8 8 10 11 9 9 10 11 12 11 8 8 10 9 9 9 8 9 9 7 8 10 14 15 19 15 20 20 19 20 20 20 20 20 20 20 20 19 19 19 19 19 19 19
6 6 5 6 9 11 11 11 12 12 12 11 8 7 5 6 6 6 6 7 6 7 9 9 8 8 8 9 8 8 9 9 9 10 9 10 11 11 12 11 8 5 6 8 10 9 7 8 9 8 9 8 9 8 9 10 12 16 20 20 19 20 20 20 20 20 20 19 19 20 19 19 19 19
7 5 5 4 6 7 8 8 10 11 12 11 12 12 11 9 8 6 7 7 7 7 8 9 7 8 9 10 9 8 9 9 10 9 9 10 10 11 12 15 13 3 5 6 9 11 8 8 10 9 9 9 8 8 9 13 17 18 18 19 20 20 21 20 20 20 20 20 20 20 20 19 19 19
6 6 5 4 4 4 5 5 5 7 10 11 11 11 11 12 12 12 9 8 7 7 8 8 8 8 8 9 9 9 8 9 9 10 9 10 10 11 12 11 13 10 6 9 10 12 9 8 10 11 9 9 8 9 12 16 17 17 18 18 19 20 20 21 21 21 20 20 20 20 20 20 20 20
6 6 5 5 5 4 8 7 5 5 6 8 10 11 11 10 11 11 13 13 11 8 9 10 11 9 7 8 10 9 9 8 10 11 10 9 10 10 12 12 12 13 8 9 11 13 12 8 9 11 10 9 8 10 13 17 17 18 18 19 19 20 20 20 21 21 21 20 20 20 20 20 20 20
6 6 5 5 6 5 5 5 5 4 4 5 5 6 5 6 8 8 11 13 14 13 10 11 14 12 6 9 10 12 10 10 11 10 12 12 12 12 13 14 15 15 11 11 10 13 13 8 9 12 11 8 9 10 12 16 17 18 19 19 19 20 20 20 20 21 20 20 20 20 20 20 20 20
6 6 5 4 6 6 6 6 6 5 5 4 5 6 6 6 6 5 6 7 6 7 7 9 10 11 10 10 12 11 11 10 10 9 12 14 14 14 14 14 14 14 11 11 10 14 11 7 9 11 11 9 9 9 12 16 16 18 19 19 19 20 20 20 20 20 20 20 20 20 20 20 20 20
6 5 4 5 6 6 6 8 11 8 5 4 6 6 6 6 6 6 7 8 8 9 8 7 9 9 11 12 11 13 13 11 11 10 11 11 11 11 13 14 12 12 9 9 10 11 12 9 9 11 10 9 10 9 9 13 17 18 19 19 20 20 19 19 19 19 20 20 20 20 20 20 20 20
4 4 4 4 5 5 5 8 9 7 2 5 5 5 5 5 6 9 6 7 11 13 14 15 15 16 17 19 21 21 21 16 13 9 10 13 11 11 14 14 12 13 9 7 10 11 13 10 9 10 10 9 10 9 9 8 13 18 18 19 19 19 19 19 19 19 19 20 20 20 20 20 19 19
4 4 7 6 4 5 5 5 6 4 4 4 4 3 4 6 7 8 6 6 6 9 12 13 14 17 18 19 20 19 20 19 13 7 11 13 11 12 13 16 14 15 12 11 8 11 12 9 8 10 9 8 9 10 9 9 10 14 16 19 20 19 19 19 20 19 19 19 19 19 19 18 17 11
4 3 4 6 5 4 4 6 5 4 5 4 4 3 3 7 8 8 6 7 9 9 9 9 7 9 10 9 8 10 15 15 14 10 11 11 11 12 14 15 15 16 13 8 9 11 10 10 10 8 7 10 9 8 9 10 9 8 8 10 12 17 19 19 19 19 19 19 19 19 19 17 14 10
4 3 3 3 6 6 5 6 6 6 8 5 3 2 5 6 8 5 5 7 7 9 8 9 9 10 9 9 9 9 9 10 10 11 11 11 11 13 14 16 16 15 15 6 8 10 9 9 10 9 11 9 7 5 9 9 9 9 8 8 8 12 16 16 14 18 19 19 19 18 17 16 16 9
5 5 4 4 5 6 5 5 6 7 9 8 4 5 7 7 5 5 6 8 8 7 7 8 9 8 8 8 8 9 9 9 9 10 11 12 12 13 15 17 17 16 17 13 10 10 11 8 10 9 10 11 9 5 2 6 7 9 9 9 9 8 7 9 8 9 12 15 16 16 16 17 19 14
5 6 5 3 5 5 3 4 6 8 9 9 6 7 10 10 8 6 5 6 5 6 6 7 8 8 7 8 8 9 9 10 10 11 12 13 14 14 13 16 19 18 19 11 14 13 12 11 12 10 9 11 10 10 5 3 4 7 7 7 8 7 9 8 8 8 7 8 9 11 13 17 18 20
7 3 3 4 6 5 3 4 7 9 9 7 7 10 9 9 8 7 3 3 5 5 6 7 8 8 7 8 9 10 10 10 11 12 13 15 15 16 16 17 17 19 20 16 14 14 14 13 11 12 11 10 9 7 9 7 4 3 5 6 7 6 7 7 8 8 8 8 8 13 13 15 19 20
3 4 3 4 6 6 7 8 9 9 7 6 7 8 8 7 6 3 3 3 4 6 6 7 8 8 8 8 9 10 10 11 13 13 14 15 16 17 16 17 19 19 21 17 15 15 14 14 12 12 12 11 10 10 8 8 4 5 7 4 5 5 6 7 8 7 7 7 6 7 8 8 9 9
3 5 7 8 8 9 9 9 7 4 6 6 3 4 5 4 3 3 3 4 4 5 6 7 7 8 8 8 9 10 11 13 12 11 12 13 15 16 16 16 15 15 12 9 11 14 14 13 13 12 12 11 10 9 7 6 7 6 6 6 3 5 7 7 6 7 7 7 8 10 13 12 10 9
5 5 7 8 8 7 4 1 2 2 2 3 1 3 1 2 3 3 3 4 4 5 6 7 7 8 8 9 10 11 11 10 10 11 13 14 15 15 16 17 17 15 14 8 9 12 13 12 12 12 10 10 10 9 8 6 5 5 5 7 4 3 4 6 7 6 7 8 9 10 9 8 12 11
3 5 4 5 4 1 3 5 7 6 5 3 3 4 3 3 4 3 3 3 4 5 5 7 7 7 8 8 9 9 10 10 11 10 12 13 15 15 15 15 15 16 16 13 9 10 12 12 12 13 12 8 8 10 7 7 7 6 6 6 7 7 5 7 6 6 7 7 8 7 7 6 7 10
2 2 4 1 4 4 5 5 5 5 4 3 2 3 4 3 3 4 6 5 3 4 4 6 6 7 7 8 9 9 9 9 10 10 11 12 14 14 14 15 17 15 15 14 7 9 12 11 12 10 11 8 7 7 6 6 8 6 6 6 7 4 5 7 7 6 6 6 6 8 7 7 8 9
1 0 2 3 4 4 4 4 4 3 3 3 3 2 3 3 3 3 3 4 5 6 5 6 7 7 7 8 8 9 10 10 10 10 11 13 12 14 12 14 14 14 16 15 11 7 5 7 9 10 9 8 8 6 4 3 1 2 5 6 6 6 5 6 6 6 7 7 7 6 6 7 6 7
2 4 4 4 4 4 4 4 3 2 2 2 3 3 3 3 4 4 3 4 5 5 5 5 6 7 7 8 9 9 9 10 10 11 11 12 12 12 13 14 15 14 13 13 11 8 7 1 3 3 4 5 6 4 3 6 7 7 6 5 6 6 5 6 6 7 8 8 8 7 5 6 8 7
1 3 4 3 4 3 4 4 2 2 1 2 2 2 2 4 3 3 3 4 5 5 5 6 5 6 6 7 8 9 9 10 10 11 10 10 11 11 12 12 14 15 15 14 12 9 7 7 1 5 3 5 3 5 11 5 4 3 2 3 6 6 5 6 6 7 7 6 6 8 8 6 8 7
2 3 5 4 3 3 3 2 2 1 1 1 2 2 3 4 3 4 5 5 5 5 5 6 6 7 7 7 8 8 9 9 9 9 10 10 11 10 11 12 12 14 14 13 13 10 9 8 7 3 7 4 5 4 1 9 9 2 4 5 4 4 4 5 6 6 7 6 7 7 7 9 8 7
4 3 3 4 3 3 3 2 2 2 2 2 2 2 3 3 4 4 4 4 4 4 5 5 6 6 7 7 8 7 8 8 9 10 10 10 9 9 10 12 12 12 13 13 11 11 9 9 8 8 2 7 6 7 3 1 8 11 5 2 4 5 5 5 5 5 7 8 7 7 7 6 6 7
5 4 4 3 2 2 2 2 2 2 2 2 3 2 2 2 3 4 4 4 5 5 6 6 6 6 7 7 8 8 9 8 7 8 9 9 10 9 9 10 11 11 11 12 12 11 10 8 10 8 7 2 7 6 3 3 3 7 10 2 2 4 5 6 6 7 6 6 7 7 5 5 7 6
5 4 4 3 3 3 3 2 2 2 2 2 3 3 3 3 4 4 5 5 5 5 6 6 6 6 7 7 7 7 8 9 9 9 9 9 9 9 9 9 10 11 10 11 12 12 12 13 10 9 8 7 4 1 6 6 5 3 9 14 3 2 5 6 6 6 5 5 4 4 2 2 4 3
4 4 4 4 4 3 3 2 3 2 3 3 2 3 3 3 4 4 4 5 5 5 5 5 6 7 7 7 7 7 7 7 8 8 9 9 9 9 8 8 8 8 9 11 12 12 12 13 13 10 8 7 7 9 9 9 6 6 9 16 16 4 2 4 5 6 5 5 4 4 4 3 4 0
5 5 4 4 3 4 4 3 3 3 3 3 3 3 3 3 3 4 3 4 4 5 6 6 6 6 7 7 7 7 7 8 8 8 9 9 9 9 10 10 8 9 8 10 10 13 13 11 13 17 11 6 3 2 7 11 11 9 10 10 14 15 13 7 3 4 3 1 4 6 5 5 3 3
5 5 4 4 5 3 3 4 3 3 2 3 3 3 2 2 2 5 4 5 5 4 5 6 6 6 7 7 7 7 7 7 8 9 9 9 10 10 10 8 9 9 9 8 8 9 10 10 11 10 9 9 11 14 13 10 9 8 6 5 7 13 17 18 19 15 8 3 2 2 2 2 2 3
4 5 5 4 4 4 3 3 2 2 2 2 3 3 2 3 4 5 5 5 5 5 5 6 6 6 7 7 7 7 6 7 8 8 9 8 8 9 9 9 8 7 6 7 7 7 7 9 10 10 10 10 10 10 12 10 8 7 7 6 7 6 10 16 20 22 21 19 13 6 1 1 2 3
5 5 5 4 5 4 3 2 2 2 2 2 2 2 2 3 4 4 4 5 5 5 5 5 6 6 7 7 7 7 6 7 7 8 8 8 8 8 8 8 8 8 6 7 7 7 7 7 8 9 10 11 9 10 11 9 9 8 7 7 6 7 8 7 8 15 20 22 19 15 16 16 12 9
5 5 5 5 5 4 3 2 2 2 2 2 2 2 2 2 2 3 4 4 5 5 5 5 6 6 6 7 7 7 8 8 7 7 7 7 8 8 8 8 8 8 7 7 6 7 7 7 7 7 8 9 9 9 10 9 9 8 10 11 11 8 7 6 8 12 13 13 13 14 14 16 17 18
Wind_Direction
239 234 222 215 236 250 232 220 214 207 194 200 190 185 198 191 236 296 294 283 289 298 2 325 291 305 329 316 311 310 301 300 307 305 303 297 296 296 295 291 287 282 277 271 266 260 255 251 248 245 243 242 239 233 233 240 244 240 237 236 236 236 237 235 233 232 231 231 230 231 232 234 233 234
222 230 240 224 233 249 230 227 211 185 192 190 191 192 203 186 198 217 254 283 227 278 292 225 281 310 309 307 303 303 300 299 305 297 297 297 295 296 295 292 287 281 277 272 266 261 256 252 249 246 243 242 242 241 238 237 238 239 239 238 236 236 236 236 234 233 232 231 231 231 231 233 235 235
205 229 244 236 239 249 248 241 222 201 185 197 191 192 167 195 197 202 214 267 267 196 280 278 275 292 301 302 298 298 296 298 302 301 297 295 292 298 298 295 290 284 278 272 267 261 257 252 248 246 242 240 240 241 240 239 238 238 238 238 236 235 234 234 233 233 232 231 231 231 231 232 233 235
215 220 229 232 227 238 233 242 222 209 207 195 194 189 184 195 194 189 199 225 263 244 262 280 291 293 298 302 300 296 297 297 303 298 295 293 297 298 291 289 288 282 277 272 268 264 259 254 249 246 242 240 239 239 239 239 239 238 238 238 237 236 234 233 232 232 233 233 231 230 230 231 232 233
221 224 234 246 246 226 231 236 227 217 217 211 211 205 197 208 201 190 204 233 264 278 235 265 283 293 302 300 294 300 301 304 303 296 294 294 295 293 289 290 287 284 279 274 268 265 261 258 253 249 245 241 239 238 237 236 236 236 238 238 237 236 235 233 232 231 232 232 233 232 231 230 230 230
233 225 235 255 259 238 229 240 235 224 224 218 222 227 213 225 228 203 195 231 246 279 290 284 292 294 289 287 291 297 306 305 305 303 301 297 292 292 292 289 289 285 280 275 271 264 261 258 255 251 247 243 240 238 236 235 234 234 235 236 236 236 235 234 232 232 231 231 232 232 231 230 229 229
242 240 240 251 257 259 250 243 237 228 232 227 226 236 223 233 240 217 204 208 251 268 279 280 295 296 301 287 293 296 293 296 296 298 300 301 300 295 293 291 288 285 280 277 272 266 261 258 255 252 248 245 240 238 236 234 233 233 232 233 234 234 234 233 232 232 231 230 231 232 231 230 229 228
234 237 250 257 253 253 255 258 249 233 226 231 236 243 242 233 244 239 210 213 230 259 283 289 286 290 295 293 292 290 291 294 297 294 294 293 291 294 295 292 290 287 283 278 273 267 261 257 254 251 248 245 241 238 235 233 232 231 231 231 231 232 232 232 231 231 231 230 230 231 231 231 229 227
235 238 237 256 258 252 258 266 262 250 233 232 229 238 244 239 244 248 233 233 218 239 258 278 284 286 281 281 286 288 296 299 295 294 294 295 295 293 290 291 288 288 286 281 275 268 262 256 252 249 247 243 241 237 234 233 231 230 230 230 230 230 230 230 229 229 229 230 230 230 230 231 229 226
238 235 241 249 251 252 245 254 256 255 249 238 231 239 247 244 246 249 252 246 241 239 251 267 288 293 291 297 289 291 295 298 302 302 297 295 290 291 296 293 292 292 291 294 287 276 266 255 251 248 244 242 240 238 234 232 230 229 228 228 228 229 229 228 228 227 227 228 229 229 229 229 228 227
240 236 240 247 246 246 243 245 246 249 253 242 242 238 245 248 242 248 251 250 251 249 262 271 275 285 286 279 287 295 298 289 284 292 303 305 301 292 288 296 295 289 287 281 277 273 270 265 256 241 238 238 236 235 233 231 230 228 227 227 227 227 227 227 226 226 225 225 227 228 228 227 226 226
241 237 238 241 245 243 246 241 248 233 242 240 254 251 244 246 239 244 252 255 252 259 265 276 284 283 288 293 278 280 294 301 295 277 299 305 309 309 302 286 292 294 289 288 287 276 268 264 258 253 245 238 234 231 231 230 229 228 227 226 226 226 226 226 225 224 223 223 224 226 227 225 224 224
241 242 238 241 243 243 247 245 244 240 227 227 247 257 228 237 234 250 254 254 257 260 269 278 273 278 283 280 289 301 304 299 297 305 304 294 296 301 303 297 275 271 284 283 278 277 272 269 261 251 245 241 235 233 227 229 227 226 224 223 223 223 223 223 223 223 222 221 222 224 225 224 223 223
239 237 235 241 245 251 255 254 250 248 247 245 238 251 238 235 238 242 248 251 252 262 271 275 279 279 277 282 284 286 286 289 294 296 299 301 302 302 296 291 281 269 265 282 284 279 271 265 266 253 250 247 230 233 218 219 218 221 220 220 219 220 221 220 220 221 220 220 220 221 222 223 222 221
250 241 231 238 255 260 263 258 249 246 250 257 255 248 242 236 227 239 249 252 253 258 265 274 271 267 273 277 280 281 286 291 290 290 297 297 300 303 308 308 307 237 230 279 295 290 286 277 267 259 251 247 237 226 227 218 217 220 216 215 216 218 218 218 218 217 218 218 218 218 219 220 220 219
245 251 251 244 237 247 245 247 256 258 261 263 266 264 257 248 238 231 232 249 261 262 269 267 265 269 266 275 282 284 289 287 290 289 293 291 294 296 294 293 292 299 304 288 286 282 280 275 272 268 256 248 242 232 226 222 219 216 218 216 216 217 218 218 217 217 217 216 216 217 217 217 217 217
239 242 249 264 260 253 256 256 252 254 270 274 268 268 271 267 257 249 244 243 241 254 259 262 272 262 265 271 272 270 274 280 286 293 291 289 285 281 285 283 288 288 298 294 280 279 277 270 269 267 256 249 243 240 230 225 219 216 215 216 216 216 216 216 216 217 216 215 214 215 216 215 215 215
234 231 233 248 267 266 266 263 262 261 258 268 279 275 262 261 264 251 247 249 243 239 246 257 265 266 239 253 265 275 279 280 280 286 288 289 288 284 279 283 282 282 280 271 278 274 270 256 260 263 264 246 243 238 234 225 220 218 216 215 215 215 214 214 215 215 216 215 213 213 214 214 213 213
228 229 224 231 248 263 267 261 256 262 262 264 270 269 267 261 260 261 262 256 254 249 238 241 248 258 259 257 262 268 272 267 267 271 279 283 281 281 281 278 271 271 260 249 249 265 270 257 254 258 260 254 243 237 237 230 223 218 217 217 217 216 215 213 214 214 215 215 214 213 212 212 212 211
227 222 221 229 247 254 259 265 267 266 273 269 263 257 267 276 276 271 255 262 258 253 251 245 247 253 261 266 272 274 276 283 285 286 283 283 282 286 288 286 287 275 264 227 233 253 262 250 248 257 254 253 249 238 234 228 223 221 219 219 219 217 215 215 214 214 214 214 214 212 211 211 210 209
224 218 215 221 245 255 256 264 272 293 273 243 242 255 271 276 286 283 288 266 259 257 256 259 264 269 274 276 274 273 273 268 269 278 285 283 285 289 289 288 288 284 278 242 215 239 256 247 239 255 249 244 248 243 233 229 222 220 221 220 220 217 215 214 214 214 214 214 213 212 211 209 207 206
229 230 234 237 237 249 257 273 299 294 226 221 228 252 276 291 290 286 289 287 275 269 270 269 265 264 265 265 268 271 270 269 268 275 281 281 288 282 285 291 292 291 278 261 218 235 241 251 231 246 255 255 243 241 238 230 224 216 220 219 217 216 214 213 212 213 214 213 212 212 209 207 202 193
229 244 247 254 257 258 272 288 283 225 211 226 216 228 267 281 278 273 288 294 303 308 308 298 291 278 266 271 278 279 278 283 288 279 273 282 281 284 288 289 292 289 278 253 210 228 243 237 237 225 248 244 242 225 228 226 222 214 206 215 220 219 214 213 211 211 212 211 211 210 206 202 186 174
250 242 258 257 261 267 265 260 242 218 210 224 228 227 240 253 263 279 289 294 299 298 298 295 298 296 299 297 288 286 286 287 289 288 284 284 283 284 288 286 282 280 280 272 205 229 238 233 245 211 225 242 247 210 211 223 216 210 200 202 209 216 212 213 215 214 211 211 211 208 202 191 181 171
237 249 242 255 261 260 266 260 250 230 219 221 237 233 234 230 256 324 295 300 292 295 300 301 300 297 299 296 292 289 290 290 296 296 292 290 286 282 285 285 280 276 269 263 234 240 244 229 236 226 222 221 242 255 241 220 206 206 199 195 206 203 182 202 203 208 214 213 212 206 197 187 186 184
247 240 243 250 251 254 258 244 231 228 228 234 236 236 226 245 278 290 283 293 303 302 304 299 299 302 304 306 303 298 298 301 300 300 297 293 288 280 273 277 282 283 275 261 222 228 235 235 225 224 220 219 226 221 245 247 219 215 204 201 204 188 180 186 188 202 191 192 201 201 197 191 189 192
237 236 240 261 271 271 251 247 257 255 252 244 228 229 236 243 269 280 287 305 310 303 302 303 304 307 309 311 308 305 304 302 302 301 298 296 291 286 283 279 276 274 272 265 239 228 221 233 216 216 219 215 222 205 216 225 224 178 197 205 202 184 178 171 186 196 190 187 201 192 192 191 193 196
254 257 258 260 276 289 285 277 269 261 234 219 214 228 245 263 278 293 318 324 309 307 303 306 308 309 311 309 305 305 304 301 302 300 298 298 296 292 290 289 286 282 273 253 229 221 217 222 223 218 217 214 212 213 211 214 214 179 196 185 186 183 173 181 190 188 186 181 170 151 142 165 189 188
247 253 261 278 288 291 290 284 278 249 205 213 254 266 270 277 303 313 331 317 318 314 314 311 306 307 310 304 297 299 299 300 301 301 303 301 297 292 292 293 293 302 295 250 215 210 217 216 219 221 212 210 211 213 208 212 197 202 184 156 189 193 184 183 181 181 179 177 182 164 179 176 166 185
269 282 291 295 297 288 287 267 177 166 106 135 282 318 126 59 2 346 336 327 327 316 311 312 312 310 310 309 308 304 304 306 306 312 311 312 309 312 319 324 325 329 328 263 217 207 215 214 213 217 216 203 204 211 206 195 205 200 178 189 174 90 187 172 187 190 175 177 183 173 177 184 182 165
321 299 304 290 279 275 72 75 75 69 80 84 56 49 50 36 17 347 337 331 324 313 310 309 309 308 305 303 310 314 317 314 312 313 311 312 311 317 324 326 324 331 336 324 233 211 209 217 212 208 219 200 192 211 202 197 206 180 196 187 164 192 183 163 176 185 183 179 136 175 177 188 184 194
284 296 281 298 99 111 88 68 61 52 49 51 47 46 36 19 355 354 350 348 327 302 295 294 300 306 314 317 314 315 317 315 314 317 316 315 315 320 330 337 335 330 332 335 304 221 218 217 213 207 209 212 201 205 203 205 207 189 190 187 195 182 128 175 170 172 174 146 135 181 188 189 182 177
319 261 80 68 55 58 69 65 57 49 44 39 27 13 20 3 350 355 4 354 335 321 318 320 320 314 317 314 317 318 318 322 320 323 320 320 320 320 334 337 329 333 337 328 325 338 258 220 209 197 194 194 204 182 154 144 243 209 184 188 191 191 168 175 172 155 141 158 177 168 182 199 195 186
164 131 119 94 89 77 78 75 62 40 34 25 10 353 9 8 358 6 357 346 328 321 319 315 316 318 319 319 323 322 320 318 323 325 328 320 324 331 338 336 331 330 334 326 328 344 353 301 185 149 103 72 49 46 169 197 197 209 207 187 188 199 181 164 169 161 166 183 166 162 187 196 202 192
96 101 83 71 71 80 91 84 67 55 15 24 0 359 0 10 4 1 350 343 332 327 323 319 315 313 317 317 318 319 320 322 323 325 327 326 331 338 332 333 331 332 334 335 331 346 359 14 201 160 118 128 94 74 53 37 212 193 163 197 194 195 175 168 168 167 171 175 168 189 192 196 203 199
97 107 123 113 117 118 100 95 89 70 46 29 25 7 14 5 1 2 350 334 332 320 324 323 326 325 323 320 317 319 321 325 325 326 328 334 335 334 330 330 332 333 334 334 335 344 2 19 10 193 178 173 162 155 149 39 51 359 190 201 184 183 160 158 171 168 174 175 183 189 187 197 207 194
126 111 113 115 114 106 108 118 92 64 50 44 32 29 28 9 345 344 330 330 323 326 322 324 321 321 319 319 322 322 325 330 331 330 329 330 330 332 334 332 331 334 335 336 335 348 4 16 20 20 255 185 188 192 115 353 69 62 13 254 167 168 165 163 167 176 183 185 189 192 201 203 205 199
124 126 108 106 102 94 94 68 69 52 34 32 34 19 19 357 341 335 332 349 337 330 329 330 323 324 320 322 327 329 327 326 325 329 330 330 334 334 335 329 328 333 332 334 345 353 1 18 25 21 8 272 201 169 138 29 10 16 20 300 231 164 158 163 178 185 190 186 186 191 186 202 210 206
121 120 119 107 90 87 77 73 76 78 55 40 39 24 358 358 347 346 348 344 333 332 330 330 332 327 324 322 323 325 326 329 335 334 329 329 327 327 329 332 328 331 335 347 347 354 8 18 19 18 15 15 350 251 128 118 54 353 11 28 342 210 158 174 184 187 181 176 179 163 145 62 56 84
101 99 105 108 106 103 93 86 79 66 60 40 30 41 29 1 347 339 339 342 341 336 332 331 330 329 327 326 324 323 323 324 324 321 324 323 326 329 332 332 328 333 337 349 357 0 9 14 13 10 14 15 43 61 87 97 107 48 36 24 16 39 169 185 173 183 196 176 152 162 168 152 170 28
108 100 89 98 96 88 99 79 73 64 51 37 27 30 27 356 350 346 336 349 345 340 340 335 333 330 326 325 326 330 327 327 326 328 328 328 328 328 333 338 338 346 345 350 357 3 7 2 3 8 14 14 17 113 63 54 45 32 37 30 26 43 49 57 108 120 116 108 171 181 169 173 164 158
110 106 98 90 97 88 86 84 61 70 53 35 40 23 359 5 3 359 357 354 349 344 340 334 332 329 326 325 325 328 331 329 330 329 332 332 333 334 338 348 344 338 341 337 345 355 345 352 2 13 13 18 34 46 51 47 46 31 19 22 37 49 58 64 70 69 71 49 106 121 121 136 118 187
109 110 107 102 99 92 83 81 64 61 59 46 38 15 6 8 4 11 1 355 343 344 338 332 328 325 327 326 327 326 327 335 334 329 329 332 334 335 336 333 328 323 328 330 328 327 345 352 4 13 18 27 34 43 51 45 36 33 27 16 17 31 57 61 67 71 65 58 57 74 82 168 158 196
120 111 107 107 99 90 80 80 76 53 52 45 35 11 18 22 12 3 350 344 339 336 325 327 327 331 331 327 327 327 336 337 331 332 332 330 332 331 329 326 331 329 345 348 340 340 338 347 4 11 26 29 25 39 44 36 34 31 31 31 15 16 36 39 57 67 64 53 45 53 69 77 82 92
118 120 118 108 101 94 89 80 74 56 56 43 32 30 36 19 12 356 344 342 338 331 332 332 332 332 329 330 333 335 332 335 337 333 331 335 339 339 338 336 340 340 360 349 351 347 344 350 360 17 35 28 26 33 38 43 34 32 30 24 18 17 23 14 42 64 68 67 32 43 66 78 81 76